www.pogodaiklimat.ru

Погода и климат >> Архив погоды >> Македония >> Крива-Паланка


ПОГОДА в Крива-Паланке

  • Прогноз погоды в Крива-Паланке
  • Монитор погоды в Крива-Паланке

АРХИВ ПОГОДЫ в Крива-Паланке

Время (UTC), дата Ветер
(напр.,м/с)
 
Видим.   Явления Облачность Т
(С)
Тd
(С)
f
(%)
Тe
(С)
Тes
(С)
Комфортность P
(гПа)
Po
(гПа)
Тmin
(С)
Tmax
(С)
R
(мм)
R24
(мм)
S
(см)
18 16.08 С 4 20 км 4/0
[Ci]
+17.7 +10.0 61 +17 +17 1015.1 937.1 +25.1
21 16.08 СВ 5 20 км 1/0
[Ci sp]
+12.5 +8.6 77 +10 +10 1018.1 938.3
00 17.08 СВ 5 20 км 8/0
[Ac trans]
+11.7 +9.0 83 +9 +9 1017.9 938.1
03 17.08 СВ 6 20 км 3/0
[Ac trans]
+9.5 +7.9 90 +6 +6 1018.5 938.1
06 17.08 СВ 5 20 км ясно +13.0 +7.7 70 +11 +13 1018.1 938.3 +9.0
09 17.08 В 5 20 км 5/5 1230 м
[Cu Sc]
+22.0 +8.6 42 +23 +27 комфорт 1015.1 938.1
12 17.08 СЗ 3 20 км 6/6 1000 м
[Cu Sc]
+24.2 +9.4 39 +25 +30 комфорт 1013.7 937.3
15 17.08 СВ 2 20 км 6/4 1000 м
[Cu Sc Ci sp]
+24.0 +9.5 40 +25 +27 комфорт 1013.1 936.7
18 17.08 СВ 4 20 км 4/3 1000 м
[Sc diur, vesp Cc]
+19.4 +12.0 62 +21 +21 комфорт 1015.4 937.5 +25.2
21 17.08 СВ 5 20 км ясно +14.6 +10.9 78 +13 +13 1017.7 938.7
00 18.08 СВ 5 20 км ясно +11.9 +10.0 88 +9 +9 1018.9 939.0
03 18.08 СВ 4 20 км ясно +10.6 +9.2 91 +8 +8 1019.2 939.0
06 18.08 СВ 4 20 км 1/0
[Ci fib]
+15.0 +10.3 73 +14 +16 1018.4 939.4 +10.0
09 18.08 Ю 3 20 км 1/1 1230 м
[Cu Sc]
+23.9 +10.2 42 +25 +36 комфорт 1016.2 939.5
12 18.08 Ю 3 20 км 3/3 1000 м
[Cu Sc]
+26.8 +9.5 34 +27 +36 жарко 1014.3 938.5
15 18.08 ЮЗ 3 20 км 1/1 1230 м
[Sc diur, vesp]
+27.7 +9.0 31 +28 +31 жарко 1013.3 937.8
18 18.08 С 3 20 км 1/1 1000 м
[Sc diur, vesp]
+20.0 +10.0 53 +22 +22 комфорт 1015.8 938.2 +28.2
21 18.08 СВ 5 20 км ясно +16.3 +10.8 70 +15 +15 1018.2 939.4
00 19.08 СВ 6 20 км ясно +13.3 +9.0 75 +11 +11 1019.0 939.4
03 19.08 СВ 5 20 км ясно +11.5 +9.0 85 +9 +9 1019.3 939.4
06 19.08 СВ 4 20 км ясно +16.2 +9.8 66 +16 +18 1018.7 939.9 +11.6
09 19.08 ЮВ 3 20 км 1/0
[Ci fib]
+26.9 +11.1 37 +28 +40 жарко 1015.9 940.0
12 19.08 СЗ 2 20 км 3/1
[Cu hum Ci fib]
+29.1 +9.4 29 +29 +41 жарко 1015.0 939.6
15 19.08 ЮВ 3 20 км 4/1 1230 м
[Cu hum Ci fib]
+29.6 +10.1 30 +30 +32 жарко 1013.7 938.7
18 19.08 СВ 4 20 км 5/0
[Cs]
+22.9 +11.7 49 +25 +25 комфорт 1016.1 939.2 +30.3
21 19.08 С 5 20 км ясно +17.6 +10.8 64 +17 +17 1018.7 940.4
00 20.08 СВ 5 20 км ясно +15.4 +10.2 71 +14 +14 1019.9 940.7
03 20.08 СВ 5 20 км ясно +13.7 +10.0 78 +12 +12 1020.3 940.8
06 20.08 СВ 4 20 км ясно +17.2 +11.0 67 +17 +19 1020.5 941.8 +13.3
09 20.08 СВ 5 20 км ясно +27.7 +11.3 36 +29 +36 жарко 1018.2 942.4
12 20.08 С 3 20 км 1/1 1000 м
[Cu hum]
+29.8 +10.6 30 +30 +41 жарко 1017.1 941.8
15 20.08 СВ 3 20 км ясно +30.4 +11.0 30 +31 +34 жарко 1016.4 941.2
18 20.08 СВ 4 20 км ясно +23.3 +11.7 48 +26 +26 жарко 1018.1 941.3 +30.6
21 20.08 СВ 5 20 км ясно +17.9 +10.1 60 +18 +18 1020.8 942.3
00 21.08 СВ 5 20 км ясно +15.4 +9.5 68 +14 +14 1021.6 942.3
03 21.08 СВ 5 20 км ясно +13.3 +8.9 75 +11 +11 1022.1 942.2
06 21.08 СВ 3 20 км ясно +17.2 +10.0 63 +17 +20 1021.6 942.8 +12.5
09 21.08 В 4 20 км 1/1 1230 м
[Cu hum]
+27.4 +12.1 39 +29 +37 жарко 1017.8 941.8
12 21.08 С 3 20 км 1/1 1000 м
[Cu hum]
+29.7 +11.5 33 +30 +41 жарко 1015.7 940.5
15 21.08 СВ 3 20 км 1/1 1230 м
[Cu hum]
+30.4 +8.8 26 +30 +33 жарко 1014.6 939.5
18 21.08 СВ 4 20 км ясно +23.2 +10.0 43 +25 +25 комфорт 1017.1 940.2 +30.8
21 21.08 СВ 5 20 км ясно +19.0 +11.4 61 +20 +20 1020.1 941.9
00 22.08 СВ 5 20 км ясно +16.3 +9.8 65 +15 +15 1020.9 941.9
03 22.08 СВ 5 20 км ясно +14.3 +9.4 72 +13 +13 1021.5 941.9
06 22.08 СВ 4 20 км ясно +18.2 +11.2 64 +18 +21 1021.4 942.9 +13.0
09 22.08 СВ 5 20 км 3/3 1230 м
[Cu Sc]
+28.0 +12.4 38 +29 +34 жарко 1018.1 942.3
12 22.08 СВ 2 20 км 5/5 1000 м
[Cu Sc]
+30.3 +11.5 31 +31 +38 жарко 1017.4 942.1
15 22.08 В 3 20 км 4/4 1230 м
[Cu Sc]
+30.8 +11.4 30 +31 +33 жарко 1015.8 940.9
18 22.08 СВ 4 20 км 1/1 1000 м
[Sc diur, vesp]
+24.2 +12.9 49 +26 +26 жарко 1018.2 941.4 +31.3
21 22.08 СВ 3 20 км ясно +20.0 +11.4 58 +22 +22 комфорт 1021.1 943.1
00 23.08 СВ 3 20 км 4/3 1000 м
[Sc Ac trans]
+18.3 +11.3 64 +19 +19 1021.6 943.1
03 23.08 СВ 4 20 км ясно +16.5 +11.3 71 +16 +16 1022.0 943.2
06 23.08 СВ 2 20 км 1/1 1000 м
[Sc diur, vesp]
+19.9 +12.9 64 +22 +25 комфорт 1021.9 943.8 +16.0
09 23.08 СВ 7 20 км 1/1 1230 м
[Cu hum]
+29.6 +12.1 34 +30 +34 жарко 1019.1 943.7
12 23.08 СВ 3 20 км 4/4 1000 м
[Cu Sc]
+31.8 +11.7 29 +32 +39 жарко 1017.2 942.4
15 23.08 СВ 4 20 км 4/4 1230 м
[Sc diur, vesp]
+30.8 +11.4 30 +31 +32 жарко 1016.1 941.2

 

Местоположение метеостанции Крива-Паланка (Македония): широта 42.20 долгота 22.33 высота над уровнем моря 696 м.

В архиве по умолчанию представлена погода в Крива-Паланке за последнюю неделю. Архивные данные за месяц целиком и за предыдущие месяцы, начиная с января 2011 года, Вы можете получить, выбрав интересующий диапазон дат из раскрывающегося списка и нажав кнопку "Ввод!".


*Определитесь, кто Вы:
робот инопланетянин человек

Внимание! Время в таблицах - всемирное. Для получения местного времени необходимо прибавить поправку, которая равна 1 ч.

Смотрите также архив погоды в соседних городах и на ближайших метеорологических станциях:

Погода в Винице (Македония) (38 км)
Погода во Вране (Черногория) (51 км)
Погода в Штипе (Македония) (52 км)
Погода в Гуришках (Македония) (52 км)
Погода в Скопье (Македония) (64 км)
Погода в Берово (Македония) (69 км)
Погода в Скопье городе (Македония) (80 км)
Погода в Демир-Капия (Македония) (87 км)
Погода в Струмице (Македония) (90 км)
Погода в Лесковаце (Сербия) (92 км)

Пояснения к столбцам:

Ветер - указаны скорость ветра в м/с - средняя за 10 мин, порывы в срок и между сроками (в фигурных скобках) и направление, откуда дует ветер: С - северный, СВ - северо-восточный, В - восточный, ЮВ - юго-восточный, Ю - южный, ЮЗ - юго-западный, З - западный, СЗ - северо-западный.
Видимость - горизонтальная дальность видимости в метрах или километрах. При видимости от 1 до 10 км при отсутствии осадков обычно наблюдается дымка, при ухудшении видимости до 1 км и менее - туман. В сухую погоду видимость может ухудшаться дымом, пылью или мглою.
Явления - указаны атмосферные явления, наблюдавшиеся в срок или в последний час перед сроком; фигурными скобками обозначены явления, наблюдавшиеся между сроками (за 1-3 часа до срока); квадратными скобками обозначены град или гололедные отложения с указанием их диаметра в мм.
Облачность - указаны через наклонную черту общая и нижняя облачность в баллах и высота нижней границы облаков в метрах; квадратными скобками обозначены формы облаков: Ci - перистые, Cs - перисто-слоистые, Cc - перисто-кучевые, Ac - высококучевые, As - высокослоистые, Sc - слоисто-кучевые, Ns - слоисто-дождевые, Cu - кучевые, Cb - кучево-дождевые. Подробнее классификацию облаков см. в Атласе облаков (PDF).
T - Температура воздуха - температура, измеренная на высоте 2 м над землей.
Td - Температура точки росы - температура, при понижении до которой содержащийся в воздухе водяной пар достигнет насыщения.
f - Относительная влажность воздуха - влажноcть воздуха, измеренная на высоте 2 м над землей.
Te - Эффективная температура - температура, которую ощущает одетый по сезону человек в тени. Характеристика душности погоды. При расчете учитывается влияние влажности воздуха и скорости ветра на теплоощущения человека.
Tes - Эффективная температура на солнце - температура, которую ощущает человек, с поправкой на солнечный нагрев. Характеристика знойности погоды. Зависит от высоты солнца над горизонтом, облачности и скорости ветра. Ночью, в пасмурную погоду, а также при ветре 12 м/с и более поправка равна нулю.
P - Атмосферное давление - приведенное к уровню моря атмосферное давление.
Po - Атмосферное давление - измеренное на уровне метеостанции атмосферное давление.
Tmin - Минимальная температура - минимум температуры воздуха на высоте 2 м над землей.
Tmax - Максимальная температура - максимум температуры воздуха на высоте 2 м над землей.
R - Количество осадков - Количество выпавших осадков за период времени, мм. При наведении курсора мыши на число - период времени, за который выпало указанное количество осадков.
R24 - Количество осадков - Количество выпавших осадков за 24 часа, мм.
S - Снежный покров - Высота снежного покрова, см. При наведении курсора мыши на число - состояние снежного покрова и степень покрытия местности в баллах.